{"data":{"norad_id":65552,"epoch":"2026-05-25T00:30:37.086048Z","epoch_age_seconds":67021,"freshness":"FRESH","line1":"1 65552U 25201C   26145.02126257  .00001184  00000+0  16747-3 0  9997","line2":"2 65552  49.9855 146.8203 0010654 175.6989 184.4042 14.84082872 38356","mean_motion":14.84082872,"eccentricity":0.0010654,"inclination_deg":49.9855,"raan_deg":146.8203,"arg_perigee_deg":175.6989,"mean_anomaly_deg":184.4042,"bstar":0.00016747,"rev_number":3835,"period_min":97.02962194149,"perigee_km":609.01399706015,"apogee_km":623.91809723301,"semimajor_km":6994.6030471466,"source":"CELESTRAK","updated_at":"2026-05-25T13:38:05.513652Z"}}